Location: Burgberg
(50.1428°N, 11.0671°E)
Time: 10:47:57
(UTC+00:00)

STARLINK-1068 - Pass Details

Date: 26 January 2020
Orbit: 548 x 551 km, 53.0° (Epoch: 17 February)

Event Time Altitude Azimuth Distance (km) Brightness Sun altitude
Exits shadow 05:17:13 21° 236° (SW) 1,252 5.0 -16.1°
Maximum altitude 05:19:52 73° 155° (SSE) 574 3.7 -15.6°
Drops below altitude 10° 05:23:59 10° 70° (ENE) 1,817 7.2 -15.0°
Sets 05:26:13 0° 69° (ENE) 2,711 8.2 -14.7°
